FW8522 Weather Reports


Display with metric or nautical units.
time (UTC)temp
F
wind
direction
speed
MPH
gust
MPH
rain 1hr
in
rain 24hr
in
rain mn
in
humidity
%
barometer
mb
20260504044528 72 44 6.0 12.0 0.00 0.03 0.00 76 1018.3
20260504043026 72 98 6.0 10.0 0.00 0.03 0.00 77 1018.2
20260504041538 72 88 3.0 11.0 0.00 0.03 0.00 76 1018.5
20260504040022 72 90 6.0 12.0 0.00 0.03 0.00 76 1018.8
20260504034520 73 46 8.0 12.0 0.00 0.04 0.03 76 1018.8
20260504033019 73 101 6.0 12.0 0.00 0.04 0.03 75 1018.8
20260504031518 73 67 7.0 13.0 0.00 0.04 0.03 75 1018.7
20260504030020 73 106 9.0 15.0 0.00 0.04 0.03 74 1018.5
20260504024518 74 73 5.0 11.0 0.00 0.05 0.03 75 1018.4
20260504023018 74 88 4.0 10.0 0.00 0.05 0.03 75 1018.2
20260504021516 74 111 5.0 13.0 0.00 0.05 0.03 75 1017.9
20260504020031 74 105 5.0 12.0 0.00 0.05 0.03 74 1017.6
20260504014521 74 40 1.0 9.0 0.00 0.05 0.03 70 1017.7
20260504013016 74 5 10.0 12.0 0.00 0.05 0.03 70 1017.4
20260504011516 73 355 7.0 12.0 0.00 0.05 0.03 70 1017.4
20260504010014 73 355 9.0 13.0 0.00 0.05 0.03 70 1017.3
20260504004515 74 360 7.0 11.0 0.00 0.05 0.03 70 1017.0
20260504003013 74 327 9.0 13.0 0.00 0.05 0.03 69 1016.9
20260504001522 74 338 7.0 11.0 0.00 0.05 0.03 69 1016.7
20260504000013 75 311 9.0 13.0 0.00 0.05 0.03 68 1016.7
20260503234512 76 329 9.0 11.0 0.00 0.05 0.03 67 1016.6
20260503233018 76 323 8.0 12.0 0.00 0.05 0.03 66 1016.7
20260503231511 77 323 9.0 12.0 0.00 0.05 0.03 65 1016.5
20260503230032 78 344 8.0 12.0 0.00 0.05 0.03 63 1016.4
20260503224512 79 332 9.0 12.0 0.00 0.06 0.03 61 1016.4
20260503223009 80 34 4.0 10.0 0.00 0.06 0.03 58 1016.3
20260503221509 80 46 3.0 9.0 0.00 0.06 0.03 59 1016.3
20260503220008 79 67 1.0 4.0 0.00 0.06 0.03 59 1016.4
20260503214519 79 12 5.0 9.0 0.00 0.11 0.03 60 1016.3
20260503213006 79 53 2.0 11.0 0.00 0.11 0.03 60 1016.3
20260503211505 79 22 4.0 10.0 0.00 0.11 0.03 60 1016.5
20260503210006 79 340 7.0 13.0 0.00 0.11 0.03 60 1016.5
20260503204503 79 9 6.0 12.0 0.00 0.13 0.03 61 1016.6
20260503203005 79 59 4.0 12.0 0.00 0.13 0.03 62 1016.9
20260503201559 78 34 5.0 12.0 0.00 0.13 0.03 62 1016.9
20260503200058 78 31 5.0 10.0 0.00 0.13 0.03 64 1017.3
20260503194607 78 65 4.0 13.0 0.00 0.68 0.03 65 1017.4
20260503193113 78 28 4.0 13.0 0.00 0.68 0.03 65 1017.5
20260503191611 77 41 4.0 10.0 0.00 0.68 0.03 65 1017.7
20260503190054 77 49 5.0 9.0 0.00 0.68 0.03 66 1018.1
20260503184552 76 90 6.0 11.0 0.00 0.68 0.03 66 1018.3
20260503183050 76 76 6.0 13.0 0.00 0.68 0.03 68 1018.5
20260503181551 76 355 4.0 12.0 0.00 0.68 0.03 69 1018.5
20260503180055 76 106 5.0 10.0 0.00 0.68 0.03 71 1018.7
20260503174548 75 78 7.0 15.0 0.00 0.68 0.03 71 1018.8
20260503173040 73 43 7.0 14.0 0.00 0.68 0.03 73 1019.0
20260503171536 72 66 6.0 15.0 0.00 0.68 0.03 73 1019.2
20260503081539 65 15 9.0 14.0 0.00 0.68 0.03 91 1016.7